Regional Weather Roundup
Issued by NWS

Home | Current Version | Previous Version | Text Only | Print | Product List | Glossary On
Versions: 1 2 3 4 5 6 7 8 9 10 11 12 13 14 15 16 17 18 19 20 21 22 23 24 25 26 27 28 29 30 31 32 33 34 35 36 37 38 39 40 41 42 43 44 45 46 47 48 49 50
000
ASUS43 KBIS 010720
RWRND

NORTH DAKOTA REGIONAL WEATHER ROUNDUP
NATIONAL WEATHER SERVICE BISMARCK ND
100 AM CST SUN FEB 01 2015

NOTE: "FAIR" INDICATES FEW OR NO CLOUDS BELOW 12,000 FEET WITH NO
SIGNIFICANT WEATHER AND/OR OBSTRUCTIONS TO VISIBILITY.


NDZ001>003-009>011-017-010800-
NORTHWEST NORTH DAKOTA

CITY           SKY/WX    TMP DP  RH WIND       PRES   REMARKS
WILLISTON      CLOUDY    -4 -12  68 N8        30.49R WCI -19
MINOT          MOCLDY    -8 -18  61 N12       30.50R WCI -27
MINOT AFB      PTCLDY    -8 -17  67 N12       30.51R WCI -28
$$

NDZ018>021-031>035-040>046-010800-
SOUTHWEST NORTH DAKOTA

CITY           SKY/WX    TMP DP  RH WIND       PRES   REMARKS
BISMARCK       LGT SNOW  -4 -11  72 N12       30.45R WCI -22
DICKINSON      LGT SNOW  -2  -8  76 NE8       30.34S WCI -17
GARRISON         N/A     -6 -12  75 N10       30.45R WCI -24
HETTINGER ARPT LGT SNOW  -2  -7  79 N16G22    30.31R WCI -23
$$

NDZ004>008-012>016-024-026-027-054-010800-
NORTHEAST NORTH DAKOTA

CITY           SKY/WX    TMP DP  RH WIND       PRES   REMARKS
GRAND FORKS    MOCLDY    -9 -17  68 N15       30.55S WCI -31
GRND FRKS AFB  MOCLDY   -10 -19  64 N16       30.55S WCI -33
DEVILS LAKE    MOCLDY    -9 -20  59 NE14      30.48F WCI -31
$$

NDZ022-023-025-028>030-036>039-047>053-010800-
SOUTHEAST NORTH DAKOTA

CITY           SKY/WX    TMP DP  RH WIND       PRES   REMARKS
FARGO          CLOUDY    -2 -11  65 N20       30.44S WCI -24
JAMESTOWN      CLOUDY    -5 -14  65 N20       30.41S WCI -28
$$




USA.gov is the U.S. government's official web portal to all federal, state and local government web resources and services.